Regional Weather Roundup
Issued by NWS

Home | Current Version | Previous Version | Graphics & Text | Print | Product List | Glossary On
Versions: 1 2 3 4 5 6 7 8 9 10 11 12 13 14 15 16 17 18 19 20 21 22 23 24 25 26 27 28 29 30 31 32 33 34 35 36 37 38 39 40 41 42 43 44 45 46 47 48 49 50
000
ASUS43 KDMX 281407
RWRIA

WEATHER ROUNDUP FOR IOWA
NATIONAL WEATHER SERVICE DES MOINES IA
800 AM CST WED JAN 28 2015

NOTE: "FAIR" INDICATES FEW OR NO CLOUDS BELOW 12,000 FEET WITH NO
SIGNIFICANT WEATHER AND/OR OBSTRUCTIONS TO VISIBILITY.

* - THESE STATIONS ARE NOT NWS STATIONS...THUS NOT UNDER NWS
QUALITY CONTROL.  THEY ALSO DO NOT REPORT WEATHER SUCH
AS PRECIPITATION OR FOG.

IAZ001>003-012>014-020>022-031>034-043>046-281500-
   NORTHWEST IOWA

CITY           SKY/WX    TMP DP  RH WIND       PRES   REMARKS
CARROLL *      CLOUDY    30  30 100 SE18G25   29.92F FOG     WCI  18
CHEROKEE *     CLOUDY    30  30 100 S9G16     29.88F FOG     WCI  22
DENISON *      CLEAR     32  30  93 SE13      29.87F WCI  22
LE MARS *      CLEAR     32  30  93 S6G15     29.86S WCI  26
ORANGE CITY *  CLEAR     32  28  86 S12G17    29.84F WCI  23
SHELDON *      MOCLDY    30  32 100 SE15G23   29.85R FOG     WCI  19
SIOUX CITY     PTCLDY    32  29  88 SE14      29.85F WCI  22
SPENCER        CLOUDY    31  28  89 SE20      29.88F FOG     WCI  19
STORM LAKE *   FOG       30  30 100 SE26G32   29.87F VSB 1   WCI  16
$$

IAZ055>058-069>071-079>083-090>094-281500-
   SOUTHWEST IOWA

CITY           SKY/WX    TMP DP  RH WIND       PRES   REMARKS
ATLANTIC *     CLEAR     32  28  86 SE5G13    29.91F WCI  27
AUDUBON *      CLEAR     30  27  86 SE9       29.92F FOG     WCI  22
CLARINDA *     CLEAR     34  30  86 SE7G13    29.94F WCI  28
COUNCIL BLFS * CLEAR     32  32 100 SE12      29.86F WCI  23
CRESTON *      CLEAR     28  28 100 SE15      29.95S FOG     WCI  17
HARLAN  *      CLEAR     32  32 100 SE13      29.93F WCI  22
LAMONI         CLEAR     30  27  88 SE10G18   29.96F FOG     WCI  21
RED OAK *      CLEAR     32  30  93 SE7G13    29.92S WCI  26
SHENANDOAH *   CLEAR     34  30  86 E9        29.91S WCI  26
$$

IAZ047>049-059>061-072>074-084-281500-
   CENTRAL IOWA

CITY           SKY/WX    TMP DP  RH WIND       PRES   REMARKS
AMES           CLOUDY    30  27  88 SE22G28   30.00F FOG     WCI  17
ANKENY *       CLOUDY    30  28  93 SE12G18   30.01F FOG     WCI  21
CHARITON *     PTCLDY    28  27  93 SE13      30.00F FOG     WCI  18
DES MOINES     CLOUDY    31  26  82 SE13      30.00F HAZE    WCI  21
GRINNELL*      CLOUDY    28  28 100 E15G22    30.05F FOG     WCI  17
KNOXVILLE *    CLOUDY    28  27  93 SE15G22   30.01F FOG     WCI  17
MARSHALLTOWN   CLOUDY    29  28  96 SE20G29   30.03F FOG     WCI  16
PELLA *        CLOUDY    28  27  93 SE15      30.05F FOG     WCI  17
PERRY *          N/A     32  30  93 SE14      29.97F FOG     WCI  22
$$

IAZ004>006-015-016-023>025-035-036-281500-
   NORTH CENTRAL IOWA

CITY           SKY/WX    TMP DP  RH WIND       PRES   REMARKS
ALGONA *       FOG       30  30 100 SE18G26   29.93F VSB 1   WCI  18
CLARION *      FOG       30  30 100 SE26G35   29.97F VSB 1/2 WCI  16
ESTHERVILLE    CLOUDY    30  29  96 S21G30    29.89F FOG     WCI  17
FORT DODGE *   CLOUDY    30  27  86 SE10G17   29.96S WCI  21
MASON CITY     FOG       27  26  96 SE24G30   30.00F VSB 1/4 WCI  12
FOREST CITY *  FOG       30  28  93 SE17G28   29.97F VSB 1/2 WCI  18
IOWA FALLS *   FOG       30  28  93 SE15G22   30.01F VSB 1/2 WCI  19
$$

IAZ007>011-017>019-026>030-037>042-050>054-066-281500-
   NORTHEAST IOWA

CITY           SKY/WX    TMP DP  RH WIND       PRES   REMARKS
CEDAR RAPIDS   CLOUDY    29  27  92 SE14G22   30.11F FOG     WCI  18
CHARLES CITY * FOG       27  27 100 SE18G28   30.05F VSB 0   WCI  13
CLINTON *      MOCLDY    27  21  80 SE10      30.23S WCI  17
DECORAH *      CLOUDY    25  25 100 S13G20    30.08S FOG     WCI  13
DUBUQUE        CLOUDY    26  24  92 S15       30.16S FOG     WCI  14
MONTICELLO *   CLOUDY    28  28 100 SE14G23   30.16S FOG     WCI  17
OELWEIN *      FOG       27  27 100 SE18G25   30.10F VSB 0   WCI  13
WATERLOO       FOG       27  27 100 SE16      30.07F VSB 1/2 WCI  15
$$

IAZ064-065-067-068-078-281500-
   EAST CENTRAL IOWA

CITY           SKY/WX    TMP DP  RH WIND       PRES   REMARKS
DAVENPORT      PTCLDY    26  20  77 SE15      30.19F WCI  14
IOWA CITY      PTCLDY    28  25  88 SE12      30.15F FOG     WCI  18
MT. PLEASANT * CLEAR     28  27  93 SE13      30.14S FOG     WCI  18
MUSCATINE *    CLEAR     28  23  80 SE12      30.18S WCI  18
QUAD CITIES    PTCLDY    25  21  85 SE10      30.19F FOG     WCI  15
$$

IAZ062-063-075>077-085>089-095>099-281500-
   SOUTHEAST IOWA

CITY           SKY/WX    TMP DP  RH WIND       PRES   REMARKS
BURLINGTON     PTCLDY    27  24  89 SE13      30.15F WCI  16
FAIRFIELD *    CLEAR     28  25  86 SE14G20   30.11S FOG     WCI  17
FORT MADISON * CLEAR     27  25  93 SE10G20   30.16R FOG     WCI  17
KEOKUK *       CLEAR     28  27  93 SE10G18   30.14S WCI  19
OSKALOOSA *      N/A     28  27  93 SE16      30.08S FOG     WCI  17
CENTERVILLE *    N/A     28  28 100 SE13      30.05S WCI  18
OTTUMWA        PTCLDY    28  26  92 SE16      30.06F FOG     WCI  16
WASHINGTON *   CLEAR     28  28 100 SE14      30.13S FOG     WCI  17
$$

ABBREVIATIONS USED IN REMARKS
   TC - TEMPERATURES IN CELSIUS
  WCI - WIND CHILL INDEX
   HX - HEAT INDEX
  VSB - VISIBILITY
$$



USA.gov is the U.S. government's official web portal to all federal, state and local government web resources and services.